Weather History for KUES - October, 2012

Change the Weather History Date:

Friday, October 5, 2012

  Actual Average (KMKE) Record (KMKE)
Temperature  
Mean Temperature 42 °F 55 °F  
Max Temperature 48 °F 63 °F 87 °F (1997)
Min Temperature 35 °F 47 °F 26 °F (1876)
Degree Days  
Heating Degree Days 24 10  
Month to date heating degree days 48  
Since 1 July heating degree days 200  
Cooling Degree Days 0 0  
Month to date cooling degree days 3  
Year to date cooling degree days 637  
Moisture  
Dew Point 29 °F    
Average Humidity 63    
Maximum Humidity 81    
Minimum Humidity 43    
Precipitation  
Precipitation 0.00 in 0.09 in 1.64 in (1959)
Month to date precipitation 0.45  
Year to date precipitation 27.81  
Snow  
Snow 0.00 in 0.00 in T in (1935)
Month to date snowfall 0.0  
Since 1 July snowfall 0.0  
Since 1 September snowfall 0.0  
Snow Depth -    
Sea Level Pressure  
Sea Level Pressure 30.08 in    
Wind  
Wind Speed 12 mph (West)    
Max Wind Speed 18 mph    
Max Gust Speed 21 mph    
Visibility 10 miles    
Events      
T = Trace of Precipitation, MM = Missing Value Source: NWS Daily Summary

Daily Weather History Graph

Daily Weather History Graph

Search for Another Location

Airport or City:

Trip Planner

Search our weather history database for the weather conditions in past years. The results will help you decide how hot, cold, wet, or windy it might be!

Date:

Astronomy

Oct. 05, 2012 Rise Set
Actual Time 6:55 AM CDT 6:26 PM CDT
Civil Twilight 6:27 AM CDT 6:54 PM CDT
Nautical Twilight 5:54 AM CDT 7:27 PM CDT
Astronomical Twilight 5:21 AM CDT 8:00 PM CDT
Moon 9:42 PM CDT (10/5) 12:10 PM CDT (10/5)
Length of Visible Light 12h 27m
Length of Day
11h 30m
Waning Gibbous, 74% of the Moon is Illuminated
Oct 5
Waning Gibbous
Oct 8
Last Quarter
Oct 15
New
Oct 21
First Quarter
Oct 29
Full

Hourly Weather History & Observations

Time (CDT) Temp. Windchill Dew Point Humidity Pressure Visibility Wind Dir Wind Speed Gust Speed Precip Events Conditions
12:15 AM 44.6 °F 38.1 °F 32.0 °F 61% 30.10 in 10.0 mi West 13.8 mph 20.7 mph N/A   Clear
12:35 AM 42.8 °F 36.6 °F 32.0 °F 66% 30.10 in 10.0 mi West 11.5 mph - N/A   Clear
12:55 AM 42.8 °F 36.6 °F 32.0 °F 66% 30.09 in 10.0 mi WNW 11.5 mph 17.3 mph N/A   Clear
1:15 AM 42.8 °F 36.2 °F 32.0 °F 66% 30.10 in 10.0 mi West 12.7 mph 17.3 mph N/A   Clear
1:35 AM 41.0 °F 33.9 °F 32.0 °F 70% 30.10 in 10.0 mi West 12.7 mph - N/A   Clear
1:55 AM 41.0 °F 35.2 °F 32.0 °F 70% 30.12 in 10.0 mi West 9.2 mph - N/A   Clear
2:15 AM 41.0 °F 33.1 °F 32.0 °F 70% 30.10 in 10.0 mi West 15.0 mph 18.4 mph N/A   Clear
2:35 AM 41.0 °F 32.2 °F 32.0 °F 70% 30.11 in 10.0 mi West 18.4 mph - N/A   Clear
2:55 AM 41.0 °F 33.1 °F 32.0 °F 70% 30.11 in 10.0 mi West 15.0 mph 19.6 mph N/A   Clear
3:15 AM 41.0 °F 34.3 °F 32.0 °F 70% 30.12 in 10.0 mi West 11.5 mph - N/A   Clear
3:35 AM 39.2 °F 31.6 °F 30.2 °F 70% 30.12 in 10.0 mi West 12.7 mph 20.7 mph N/A   Clear
3:55 AM 37.4 °F 30.3 °F 30.2 °F 75% 30.12 in 10.0 mi West 10.4 mph - N/A   Clear
4:15 AM 37.4 °F 30.8 °F 30.2 °F 75% 30.12 in 10.0 mi WSW 9.2 mph - N/A   Clear
4:35 AM 37.4 °F 30.8 °F 30.2 °F 75% 30.12 in 10.0 mi West 9.2 mph - N/A   Clear
4:55 AM 37.4 °F 29.8 °F 30.2 °F 75% 30.12 in 10.0 mi West 11.5 mph - N/A   Clear
5:15 AM 35.6 °F 28.6 °F 30.2 °F 81% 30.11 in 10.0 mi West 9.2 mph - N/A   Clear
5:35 AM 35.6 °F 28.0 °F 30.2 °F 81% 30.11 in 10.0 mi West 10.4 mph - N/A   Clear
5:45 AM 37.4 °F 29.8 °F 28.4 °F 70% 30.11 in 10.0 mi West 11.5 mph - N/A   Clear
6:45 AM 35.6 °F 29.2 °F 28.4 °F 75% 30.11 in 10.0 mi West 8.1 mph - N/A   Clear
7:45 AM 37.4 °F 29.8 °F 30.2 °F 75% 30.11 in 10.0 mi West 11.5 mph - N/A   Clear
8:45 AM 39.2 °F 30.5 °F 30.2 °F 70% 30.11 in 10.0 mi West 16.1 mph - N/A   Clear
9:45 AM 42.8 °F 35.1 °F 30.2 °F 61% 30.11 in 10.0 mi West 16.1 mph - N/A   Clear
10:45 AM 44.6 °F 37.8 °F 30.2 °F 57% 30.10 in 10.0 mi West 15.0 mph - N/A   Clear
11:45 AM 48.2 °F - 30.2 °F 50% 30.09 in 10.0 mi West 11.5 mph - N/A   Mostly Cloudy
12:45 PM 46.4 °F 39.8 °F 28.4 °F 50% 30.07 in 10.0 mi WSW 16.1 mph - N/A   Clear
1:45 PM 48.2 °F - 28.4 °F 46% 30.04 in 10.0 mi SW 10.4 mph - N/A   Clear
2:45 PM 48.2 °F - 26.6 °F 43% 30.03 in 10.0 mi WSW 11.5 mph - N/A   Overcast
3:45 PM 48.2 °F - 26.6 °F 43% 30.03 in 10.0 mi West 12.7 mph - N/A   Scattered Clouds
4:45 PM 46.4 °F 39.5 °F 24.8 °F 43% 30.02 in 10.0 mi West 17.3 mph - N/A   Clear
5:45 PM 44.6 °F 37.2 °F 24.8 °F 46% 30.04 in 10.0 mi West 17.3 mph - N/A   Clear
6:45 PM 42.8 °F 34.8 °F 23.0 °F 46% 30.04 in 10.0 mi West 17.3 mph - N/A   Scattered Clouds
7:45 PM 42.8 °F 36.6 °F 24.8 °F 49% 30.03 in 10.0 mi West 11.5 mph - N/A   Clear
8:45 PM 39.2 °F 32.0 °F 24.8 °F 56% 30.03 in 10.0 mi West 11.5 mph - N/A   Clear
9:15 PM 37.4 °F 29.8 °F 24.8 °F 60% 30.03 in 10.0 mi WSW 11.5 mph - N/A   Clear
9:35 PM 37.4 °F 30.3 °F 24.8 °F 60% 30.03 in 10.0 mi West 10.4 mph 17.3 mph N/A   Clear
9:55 PM 39.2 °F 31.6 °F 24.8 °F 56% 30.03 in 10.0 mi West 12.7 mph 17.3 mph N/A   Clear
10:35 PM 37.4 °F 29.8 °F 24.8 °F 60% 30.03 in 10.0 mi West 11.5 mph - N/A   Clear
10:55 PM 37.4 °F 30.3 °F 24.8 °F 60% 30.03 in 10.0 mi West 10.4 mph - N/A   Clear
11:15 PM 37.4 °F 30.8 °F 26.6 °F 65% 30.03 in 10.0 mi West 9.2 mph - N/A   Clear
11:35 PM 37.4 °F 30.8 °F 26.6 °F 65% 30.03 in 10.0 mi West 9.2 mph - N/A   Clear
11:55 PM 35.6 °F 29.2 °F 26.6 °F 70% 30.03 in 10.0 mi West 8.1 mph - N/A   Scattered Clouds